Flag for Czech Republic Weather past 2 weeks in Brno, Czech Republic

Now
67 °F

Fog.


Feels Like: 67 °F
Forecast: 64 / 90 °F
Wind: 3 mph from East

Location: Brno / Turany

Current Time: Aug 28, 2015 at 2:45:47 AM

Latest Report: Aug 28, 2015 at 2:00 AM


Visibility: 6 mi

Pressure: 29.95 "Hg

Humidity: 86%

Dew point: 63 °F

Location of BrnoLocation

Historic Weather in Brno — Graph

°F

Brno temperature yesterday

Maximum temperature yesterday: 81 °F (at 4:00 PM)
Minimum temperature yesterday: 54 °F (at 6:00 AM)
Average temperature yesterday: 69 °F

Past Weeks' High & Low Weather Summary

 TemperatureHumidityPressure
High95 °F (Aug 14, 5:00 PM)99% (Aug 18, 3:00 AM)30.24 "Hg (Aug 18, 3:00 AM)
Low52 °F (Aug 26, 5:00 AM)27% (Aug 14, 6:00 PM)29.69 "Hg (Aug 15, 5:00 PM)
Average70 °F63%29.96 "Hg
* Reported Aug 13 1:00 AM — Aug 28 1:00 AM, Brno, Weather by CustomWeather, © 2015

Note: Actual official high and low records may vary slightly from our data, if they occured in-between our weather recording intervals... More about our weather records

Advertising

Brno weather history for previous 24 hours

 ConditionsComfort  
Time TempWeatherWind HumidityBarometerVisibility
1:00 AM
Fri, Aug 28
67 °FFog.3 mph84%29.96 "Hg6 mi
10:00 PM
Thu, Aug 27
70 °FPassing clouds.3 mph76%29.98 "Hg9 mi
9:00 PM70 °FPassing clouds.3 mph74%29.98 "Hg10 mi
8:00 PM72 °FPassing clouds.3 mph70%29.97 "Hg7 mi
7:00 PM78 °FPartly sunny.6 mph60%29.97 "Hg9 mi
6:00 PM80 °FPartly sunny.7 mph55%29.96 "Hg25 mi
5:00 PM80 °FPartly sunny.6 mph53%29.97 "Hg28 mi
4:00 PM81 °FPartly sunny.6 mph49%29.98 "Hg28 mi
3:00 PM81 °FPartly sunny.8 mph51%29.98 "Hg28 mi
2:00 PM79 °FPartly sunny.6 mph54%30.00 "Hg31 mi
1:00 PM77 °FPartly sunny.3 mph56%30.01 "Hg31 mi
12:00 PM75 °FPartly sunny.6 mph61%30.03 "Hg31 mi
11:00 AM73 °FPartly sunny.3 mph59%30.04 "Hg31 mi
10:00 AM70 °FPassing clouds.5 mph63%30.04 "Hg31 mi
9:00 AM67 °FPassing clouds.2 mph66%30.04 "Hg31 mi
8:00 AM62 °FPassing clouds.2 mph68%30.05 "Hg31 mi
7:00 AM57 °FPassing clouds.2 mph78%30.05 "Hg31 mi
6:00 AM54 °FPassing clouds.5 mph80%30.04 "Hg31 mi
5:00 AM60 °FClear.2 mph65%30.04 "Hg31 mi
4:00 AM58 °FPassing clouds.3 mph72%30.05 "Hg31 mi
3:00 AM61 °FPassing clouds.2 mph63%30.05 "Hg25 mi
2:00 AM62 °FPassing clouds.3 mph63%30.06 "Hg25 mi
Weather by CustomWeather, © 2015

See weather overviewHow to use our weather pages